Time,TemperatureF,DewpointF,PressureIn,WindDirection,WindDirectionDegrees,WindSpeedMPH,WindSpeedGustMPH,Humidity,HourlyPrecipIn,Conditions,Clouds,dailyrainin,SoftwareType,DateUTC
2013-04-30 00:00:00,52.2,51.1,30.01,SSW,204,0.0,0.0,96,0.00,,,0.00,Wunderground v.1.15,2013-04-30 04:00:00,
2013-04-30 00:02:00,52.0,50.9,30.01,N/A,-737280,0.0,-999.0,96,0.00,,,0.01,Wunderground v.1.15,2013-04-30 04:02:00,
2013-04-30 00:07:00,52.0,50.9,30.01,N/A,-737280,0.0,-999.0,96,0.00,,,0.01,Wunderground v.1.15,2013-04-30 04:07:00,
2013-04-30 00:12:00,51.7,50.6,30.01,N/A,-737280,0.0,-999.0,96,0.00,,,0.01,Wunderground v.1.15,2013-04-30 04:12:00,
2013-04-30 00:17:00,51.5,50.4,30.01,N/A,-737280,0.0,-999.0,96,0.00,,,0.01,Wunderground v.1.15,2013-04-30 04:17:00,
2013-04-30 00:22:00,51.3,50.2,30.01,N/A,-737280,0.0,-999.0,96,0.00,,,0.01,Wunderground v.1.15,2013-04-30 04:22:00,
2013-04-30 00:27:00,51.4,50.6,30.01,N/A,-737280,0.0,-999.0,97,0.00,,,0.01,Wunderground v.1.15,2013-04-30 04:27:00,
2013-04-30 00:32:00,51.3,50.5,30.01,N/A,-737280,0.0,-999.0,97,0.00,,,0.01,Wunderground v.1.15,2013-04-30 04:32:00,
2013-04-30 00:37:00,51.2,50.4,30.01,N/A,-737280,0.0,-999.0,97,0.00,,,0.01,Wunderground v.1.15,2013-04-30 04:37:00,
2013-04-30 00:42:00,51.2,50.4,30.02,N/A,-737280,0.0,-999.0,97,0.00,,,0.01,Wunderground v.1.15,2013-04-30 04:42:00,
2013-04-30 00:47:00,50.9,50.1,30.02,N/A,-737280,0.0,-999.0,97,0.00,,,0.01,Wunderground v.1.15,2013-04-30 04:47:00,
2013-04-30 00:52:00,51.0,50.2,30.02,N/A,-737280,0.0,-999.0,97,0.00,,,0.01,Wunderground v.1.15,2013-04-30 04:52:00,
2013-04-30 00:57:00,51.0,50.2,30.02,N/A,-737280,0.0,-999.0,97,0.00,,,0.01,Wunderground v.1.15,2013-04-30 04:57:00,
2013-04-30 01:02:00,50.6,49.8,30.02,N/A,-737280,0.0,-999.0,97,0.00,,,0.01,Wunderground v.1.15,2013-04-30 05:02:00,
2013-04-30 01:07:00,50.5,49.7,30.02,N/A,-737280,0.0,-999.0,97,0.00,,,0.01,Wunderground v.1.15,2013-04-30 05:07:00,
2013-04-30 01:12:00,50.2,49.4,30.02,N/A,-737280,0.0,-999.0,97,0.00,,,0.01,Wunderground v.1.15,2013-04-30 05:12:00,
2013-04-30 01:17:00,50.0,49.2,30.02,N/A,-737280,0.0,-999.0,97,0.00,,,0.01,Wunderground v.1.15,2013-04-30 05:17:00,
2013-04-30 01:22:00,50.0,49.2,30.02,N/A,-737280,0.0,-999.0,97,0.00,,,0.01,Wunderground v.1.15,2013-04-30 05:22:00,
2013-04-30 01:27:00,49.9,49.1,30.02,N/A,-737280,0.0,-999.0,97,0.00,,,0.01,Wunderground v.1.15,2013-04-30 05:27:00,
2013-04-30 01:32:00,49.7,48.9,30.02,N/A,-737280,0.0,-999.0,97,0.00,,,0.01,Wunderground v.1.15,2013-04-30 05:32:00,
2013-04-30 01:37:00,49.6,48.8,30.02,N/A,-737280,0.0,-999.0,97,0.00,,,0.01,Wunderground v.1.15,2013-04-30 05:37:00,
2013-04-30 01:42:00,49.4,48.6,30.02,N/A,-737280,0.0,-999.0,97,0.00,,,0.01,Wunderground v.1.15,2013-04-30 05:42:00,
2013-04-30 01:47:00,49.2,48.4,30.02,N/A,-737280,0.0,-999.0,97,0.00,,,0.01,Wunderground v.1.15,2013-04-30 05:47:00,
2013-04-30 01:52:00,49.0,48.2,30.02,N/A,-737280,0.0,-999.0,97,0.00,,,0.01,Wunderground v.1.15,2013-04-30 05:52:00,
2013-04-30 01:57:00,48.9,48.1,30.03,N/A,-737280,0.0,-999.0,97,0.00,,,0.01,Wunderground v.1.15,2013-04-30 05:57:00,
2013-04-30 02:02:00,49.0,48.2,30.02,N/A,-737280,0.0,-999.0,97,0.00,,,0.01,Wunderground v.1.15,2013-04-30 06:02:00,
2013-04-30 02:05:00,49.2,48.4,30.02,SSW,205,0.0,0.0,97,0.00,,,0.00,Wunderground v.1.15,2013-04-30 06:05:00,
2013-04-30 02:07:00,49.2,48.4,30.02,N/A,-737280,0.0,-999.0,97,0.00,,,0.01,Wunderground v.1.15,2013-04-30 06:07:00,
2013-04-30 02:10:00,49.2,48.4,30.02,SSW,204,0.0,0.0,97,0.00,,,0.00,Wunderground v.1.15,2013-04-30 06:10:00,
2013-04-30 02:12:00,49.2,48.4,30.02,N/A,-737280,0.0,-999.0,97,0.00,,,0.01,Wunderground v.1.15,2013-04-30 06:12:00,
2013-04-30 02:17:00,49.1,48.3,30.02,N/A,-737280,0.0,-999.0,97,0.00,,,0.01,Wunderground v.1.15,2013-04-30 06:17:00,
2013-04-30 02:20:00,49.1,48.3,30.02,SSW,204,0.0,0.0,97,0.00,,,0.00,Wunderground v.1.15,2013-04-30 06:20:00,
2013-04-30 02:22:00,49.1,48.3,30.02,N/A,-737280,0.0,-999.0,97,0.00,,,0.01,Wunderground v.1.15,2013-04-30 06:22:00,
2013-04-30 02:25:00,49.1,48.3,30.02,SSW,205,0.0,0.0,97,0.00,,,0.00,Wunderground v.1.15,2013-04-30 06:25:00,
2013-04-30 02:27:00,49.1,48.3,30.02,N/A,-737280,0.0,-999.0,97,0.00,,,0.01,Wunderground v.1.15,2013-04-30 06:27:00,
2013-04-30 02:30:00,48.9,48.1,30.02,SSW,204,0.0,0.0,97,0.00,,,0.00,Wunderground v.1.15,2013-04-30 06:30:00,
2013-04-30 02:32:00,49.0,48.2,30.02,N/A,-737280,0.0,-999.0,97,0.00,,,0.01,Wunderground v.1.15,2013-04-30 06:32:00,
2013-04-30 02:35:00,48.8,48.0,30.02,SSW,204,0.0,0.0,97,0.00,,,0.00,Wunderground v.1.15,2013-04-30 06:35:00,
2013-04-30 02:37:00,48.9,48.1,30.02,N/A,-737280,0.0,-999.0,97,0.00,,,0.01,Wunderground v.1.15,2013-04-30 06:37:00,
2013-04-30 02:40:00,48.9,48.1,30.02,SSW,204,0.0,0.0,97,0.00,,,0.00,Wunderground v.1.15,2013-04-30 06:40:00,
2013-04-30 02:42:00,48.9,48.1,30.02,N/A,-737280,0.0,-999.0,97,0.00,,,0.01,Wunderground v.1.15,2013-04-30 06:42:00,
2013-04-30 02:47:00,48.8,48.0,30.03,N/A,-737280,0.0,-999.0,97,0.00,,,0.01,Wunderground v.1.15,2013-04-30 06:47:00,
2013-04-30 02:50:00,48.6,47.8,30.02,SSW,204,0.0,0.0,97,0.00,,,0.00,Wunderground v.1.15,2013-04-30 06:50:00,
2013-04-30 02:52:00,48.7,47.9,30.03,N/A,-737280,0.0,-999.0,97,0.00,,,0.01,Wunderground v.1.15,2013-04-30 06:52:00,
2013-04-30 02:55:00,48.4,47.6,30.02,SSW,204,0.0,0.0,97,0.00,,,0.00,Wunderground v.1.15,2013-04-30 06:55:00,
2013-04-30 02:57:00,48.5,47.7,30.02,N/A,-737280,0.0,-999.0,97,0.00,,,0.01,Wunderground v.1.15,2013-04-30 06:57:00,
2013-04-30 03:00:00,48.4,47.6,30.02,SSW,204,0.0,0.0,97,0.00,,,0.01,Wunderground v.1.15,2013-04-30 07:00:00,
2013-04-30 03:02:00,48.4,47.6,30.02,N/A,-737280,0.0,-999.0,97,0.01,,,0.01,Wunderground v.1.15,2013-04-30 07:02:00,
2013-04-30 03:07:00,48.4,47.6,30.02,N/A,-737280,0.0,-999.0,97,0.01,,,0.01,Wunderground v.1.15,2013-04-30 07:07:00,
2013-04-30 03:10:00,48.3,47.5,30.02,SSW,204,0.0,0.0,97,0.00,,,0.01,Wunderground v.1.15,2013-04-30 07:10:00,
2013-04-30 03:12:00,48.4,47.6,30.02,N/A,-737280,0.0,-999.0,97,0.01,,,0.01,Wunderground v.1.15,2013-04-30 07:12:00,
2013-04-30 03:15:00,48.2,47.4,30.03,SSW,204,0.0,0.0,97,0.00,,,0.01,Wunderground v.1.15,2013-04-30 07:15:00,
2013-04-30 03:17:00,48.3,47.5,30.02,N/A,-737280,0.0,-999.0,97,0.01,,,0.01,Wunderground v.1.15,2013-04-30 07:17:00,
2013-04-30 03:22:00,48.2,47.4,30.03,N/A,-737280,0.0,-999.0,97,0.01,,,0.01,Wunderground v.1.15,2013-04-30 07:22:00,
2013-04-30 03:25:00,48.2,47.7,30.03,SSW,204,0.0,0.0,98,0.00,,,0.01,Wunderground v.1.15,2013-04-30 07:25:00,
2013-04-30 03:27:00,48.2,47.7,30.03,N/A,-737280,0.0,-999.0,98,0.01,,,0.01,Wunderground v.1.15,2013-04-30 07:27:00,
2013-04-30 03:30:00,48.2,47.7,30.03,SSW,205,0.0,0.0,98,0.00,,,0.01,Wunderground v.1.15,2013-04-30 07:30:00,
2013-04-30 03:32:00,48.2,47.7,30.03,N/A,-737280,0.0,-999.0,98,0.01,,,0.01,Wunderground v.1.15,2013-04-30 07:32:00,
2013-04-30 03:35:00,48.4,47.9,30.03,SSW,205,0.0,0.0,98,0.00,,,0.01,Wunderground v.1.15,2013-04-30 07:35:00,
2013-04-30 03:37:00,48.2,47.7,30.03,N/A,-737280,0.0,-999.0,98,0.01,,,0.01,Wunderground v.1.15,2013-04-30 07:37:00,
2013-04-30 03:40:00,48.7,48.2,30.03,SSW,204,0.0,0.0,98,0.00,,,0.01,Wunderground v.1.15,2013-04-30 07:40:00,
2013-04-30 03:42:00,48.5,48.0,30.03,N/A,-737280,0.0,-999.0,98,0.01,,,0.01,Wunderground v.1.15,2013-04-30 07:42:00,
2013-04-30 03:47:00,48.8,48.3,30.04,N/A,-737280,0.0,-999.0,98,0.01,,,0.01,Wunderground v.1.15,2013-04-30 07:47:00,
2013-04-30 03:50:00,48.8,48.3,30.04,SSW,205,0.0,0.0,98,0.00,,,0.01,Wunderground v.1.15,2013-04-30 07:50:00,
2013-04-30 03:52:00,48.8,48.3,30.03,N/A,-737280,0.0,-999.0,98,0.01,,,0.01,Wunderground v.1.15,2013-04-30 07:52:00,
2013-04-30 03:57:00,48.7,48.2,30.04,N/A,-737280,0.0,-999.0,98,0.01,,,0.01,Wunderground v.1.15,2013-04-30 07:57:00,
2013-04-30 04:00:00,48.6,48.1,30.04,SSW,204,0.0,0.0,98,0.00,,,0.01,Wunderground v.1.15,2013-04-30 08:00:00,
2013-04-30 04:02:00,48.6,48.1,30.04,N/A,-737280,0.0,-999.0,98,0.00,,,0.01,Wunderground v.1.15,2013-04-30 08:02:00,
2013-04-30 04:07:00,48.6,48.1,30.04,N/A,-737280,0.0,-999.0,98,0.00,,,0.01,Wunderground v.1.15,2013-04-30 08:07:00,
2013-04-30 04:10:00,48.5,48.0,30.04,SSW,204,0.0,0.0,98,0.00,,,0.01,Wunderground v.1.15,2013-04-30 08:10:00,
2013-04-30 04:12:00,48.5,48.0,30.04,N/A,-737280,0.0,-999.0,98,0.00,,,0.01,Wunderground v.1.15,2013-04-30 08:12:00,
2013-04-30 04:15:00,48.5,48.0,30.05,SSW,204,0.0,0.0,98,0.00,,,0.01,Wunderground v.1.15,2013-04-30 08:15:00,
2013-04-30 04:17:00,48.5,48.0,30.05,N/A,-737280,0.0,-999.0,98,0.00,,,0.01,Wunderground v.1.15,2013-04-30 08:17:00,
2013-04-30 04:20:00,48.5,48.0,30.04,SSW,204,0.0,0.0,98,0.00,,,0.01,Wunderground v.1.15,2013-04-30 08:20:00,
2013-04-30 04:22:00,48.5,48.0,30.04,N/A,-737280,0.0,-999.0,98,0.00,,,0.01,Wunderground v.1.15,2013-04-30 08:22:00,
2013-04-30 04:27:00,48.4,47.9,30.04,N/A,-737280,0.0,-999.0,98,0.00,,,0.01,Wunderground v.1.15,2013-04-30 08:27:00,
2013-04-30 04:30:00,48.3,47.8,30.05,SSW,204,0.0,0.0,98,0.00,,,0.01,Wunderground v.1.15,2013-04-30 08:30:00,
2013-04-30 04:32:00,48.4,47.9,30.05,N/A,-737280,0.0,-999.0,98,0.00,,,0.01,Wunderground v.1.15,2013-04-30 08:32:00,
2013-04-30 04:35:00,48.1,47.6,30.05,SSW,204,0.0,0.0,98,0.00,,,0.01,Wunderground v.1.15,2013-04-30 08:35:00,
2013-04-30 04:37:00,48.2,47.7,30.05,N/A,-737280,0.0,-999.0,98,0.00,,,0.01,Wunderground v.1.15,2013-04-30 08:37:00,
2013-04-30 04:40:00,47.9,47.4,30.05,SSW,204,0.0,0.0,98,0.00,,,0.01,Wunderground v.1.15,2013-04-30 08:40:00,
2013-04-30 04:42:00,48.0,47.5,30.05,N/A,-737280,0.0,-999.0,98,0.00,,,0.01,Wunderground v.1.15,2013-04-30 08:42:00,
2013-04-30 04:45:00,47.7,46.9,30.05,SSW,205,0.0,0.0,97,0.00,,,0.01,Wunderground v.1.15,2013-04-30 08:45:00,
2013-04-30 04:47:00,47.8,47.0,30.05,N/A,-737280,0.0,-999.0,97,0.00,,,0.01,Wunderground v.1.15,2013-04-30 08:47:00,
2013-04-30 04:50:00,47.4,46.6,30.05,SSW,204,0.0,0.0,97,0.00,,,0.01,Wunderground v.1.15,2013-04-30 08:50:00,
2013-04-30 04:52:00,47.6,46.8,30.05,N/A,-737280,0.0,-999.0,97,0.00,,,0.01,Wunderground v.1.15,2013-04-30 08:52:00,
2013-04-30 04:55:00,47.1,46.3,30.05,SSW,204,0.0,0.0,97,0.00,,,0.01,Wunderground v.1.15,2013-04-30 08:55:00,
2013-04-30 04:57:00,47.3,46.5,30.05,N/A,-737280,0.0,-999.0,97,0.00,,,0.01,Wunderground v.1.15,2013-04-30 08:57:00,
2013-04-30 05:00:00,47.0,46.2,30.05,SSW,204,0.0,0.0,97,0.00,,,0.01,Wunderground v.1.15,2013-04-30 09:00:00,
2013-04-30 05:02:00,47.1,46.3,30.05,N/A,-737280,0.0,-999.0,97,0.00,,,0.01,Wunderground v.1.15,2013-04-30 09:02:00,
2013-04-30 05:07:00,46.9,46.1,30.05,N/A,-737280,0.0,-999.0,97,0.00,,,0.01,Wunderground v.1.15,2013-04-30 09:07:00,
2013-04-30 05:10:00,46.6,45.8,30.05,SSW,204,0.0,0.0,97,0.00,,,0.01,Wunderground v.1.15,2013-04-30 09:10:00,
2013-04-30 05:12:00,46.7,45.9,30.05,N/A,-737280,0.0,-999.0,97,0.00,,,0.01,Wunderground v.1.15,2013-04-30 09:12:00,
2013-04-30 05:15:00,46.5,45.7,30.05,SSW,204,0.0,0.0,97,0.00,,,0.01,Wunderground v.1.15,2013-04-30 09:15:00,
2013-04-30 05:17:00,46.5,45.7,30.05,N/A,-737280,0.0,-999.0,97,0.00,,,0.01,Wunderground v.1.15,2013-04-30 09:17:00,
2013-04-30 05:20:00,46.4,45.9,30.05,SSW,204,0.0,0.0,98,0.00,,,0.01,Wunderground v.1.15,2013-04-30 09:20:00,
2013-04-30 05:22:00,46.4,45.9,30.05,N/A,-737280,0.0,-999.0,98,0.00,,,0.01,Wunderground v.1.15,2013-04-30 09:22:00,
2013-04-30 05:25:00,46.4,45.9,30.05,SSW,205,0.0,0.0,98,0.00,,,0.01,Wunderground v.1.15,2013-04-30 09:25:00,
2013-04-30 05:27:00,46.4,45.9,30.05,N/A,-737280,0.0,-999.0,98,0.00,,,0.01,Wunderground v.1.15,2013-04-30 09:27:00,
2013-04-30 05:30:00,46.3,45.8,30.05,SSW,204,0.0,0.0,98,0.00,,,0.01,Wunderground v.1.15,2013-04-30 09:30:00,
2013-04-30 05:32:00,46.3,45.8,30.05,N/A,-737280,0.0,-999.0,98,0.00,,,0.01,Wunderground v.1.15,2013-04-30 09:32:00,
2013-04-30 05:35:00,46.1,45.6,30.06,SSW,205,0.0,0.0,98,0.00,,,0.01,Wunderground v.1.15,2013-04-30 09:35:00,
2013-04-30 05:37:00,46.2,45.7,30.06,N/A,-737280,0.0,-999.0,98,0.00,,,0.01,Wunderground v.1.15,2013-04-30 09:37:00,
2013-04-30 05:42:00,46.0,45.5,30.06,N/A,-737280,0.0,-999.0,98,0.00,,,0.01,Wunderground v.1.15,2013-04-30 09:42:00,
2013-04-30 05:45:00,45.7,45.2,30.06,SSW,204,0.0,0.0,98,0.00,,,0.01,Wunderground v.1.15,2013-04-30 09:45:00,
2013-04-30 05:47:00,45.8,45.3,30.06,N/A,-737280,0.0,-999.0,98,0.00,,,0.01,Wunderground v.1.15,2013-04-30 09:47:00,
2013-04-30 05:50:00,45.8,45.3,30.06,SSW,204,0.0,0.0,98,0.00,,,0.01,Wunderground v.1.15,2013-04-30 09:50:00,
2013-04-30 05:52:00,45.8,45.3,30.06,N/A,-737280,0.0,-999.0,98,0.00,,,0.01,Wunderground v.1.15,2013-04-30 09:52:00,
2013-04-30 05:55:00,45.7,45.2,30.06,SSW,204,0.0,0.0,98,0.00,,,0.01,Wunderground v.1.15,2013-04-30 09:55:00,
2013-04-30 05:57:00,45.7,45.2,30.06,N/A,-737280,0.0,-999.0,98,0.00,,,0.01,Wunderground v.1.15,2013-04-30 09:57:00,
2013-04-30 06:00:00,45.7,45.2,30.06,SSW,204,0.0,0.0,98,0.00,,,0.01,Wunderground v.1.15,2013-04-30 10:00:00,
2013-04-30 06:02:00,45.7,45.2,30.06,N/A,-737280,0.0,-999.0,98,0.00,,,0.01,Wunderground v.1.15,2013-04-30 10:02:00,
2013-04-30 06:07:00,45.7,45.2,30.06,N/A,-737280,0.0,-999.0,98,0.00,,,0.01,Wunderground v.1.15,2013-04-30 10:07:00,
2013-04-30 06:10:00,45.6,45.1,30.06,SSW,204,0.0,0.0,98,0.00,,,0.01,Wunderground v.1.15,2013-04-30 10:10:00,
2013-04-30 06:12:00,45.6,45.1,30.06,N/A,-737280,0.0,-999.0,98,0.00,,,0.01,Wunderground v.1.15,2013-04-30 10:12:00,
2013-04-30 06:17:00,45.6,45.1,30.06,N/A,-737280,0.0,-999.0,98,0.00,,,0.01,Wunderground v.1.15,2013-04-30 10:17:00,
2013-04-30 06:20:00,45.6,45.1,30.06,SSW,205,0.0,0.0,98,0.00,,,0.01,Wunderground v.1.15,2013-04-30 10:20:00,
2013-04-30 06:22:00,45.6,45.1,30.06,N/A,-737280,0.0,-999.0,98,0.00,,,0.01,Wunderground v.1.15,2013-04-30 10:22:00,
2013-04-30 06:25:00,45.5,45.0,30.06,SSW,204,0.0,0.0,98,0.00,,,0.01,Wunderground v.1.15,2013-04-30 10:25:00,
2013-04-30 06:27:00,45.6,45.1,30.06,N/A,-737280,0.0,-999.0,98,0.00,,,0.01,Wunderground v.1.15,2013-04-30 10:27:00,
2013-04-30 06:32:00,45.5,45.0,30.07,N/A,-737280,0.0,-999.0,98,0.00,,,0.01,Wunderground v.1.15,2013-04-30 10:32:00,
2013-04-30 06:35:00,45.3,44.8,30.07,SSW,205,0.0,0.0,98,0.00,,,0.01,Wunderground v.1.15,2013-04-30 10:35:00,
2013-04-30 06:37:00,45.3,44.8,30.07,N/A,-737280,0.0,-999.0,98,0.00,,,0.01,Wunderground v.1.15,2013-04-30 10:37:00,
2013-04-30 06:40:00,45.2,44.7,30.07,SSW,204,0.0,0.0,98,0.00,,,0.01,Wunderground v.1.15,2013-04-30 10:40:00,
2013-04-30 06:42:00,45.2,44.7,30.07,N/A,-737280,0.0,-999.0,98,0.00,,,0.01,Wunderground v.1.15,2013-04-30 10:42:00,
2013-04-30 06:45:00,45.2,44.7,30.07,SSW,205,0.0,0.0,98,0.00,,,0.01,Wunderground v.1.15,2013-04-30 10:45:00,
2013-04-30 06:47:00,45.2,44.7,30.07,N/A,-737280,0.0,-999.0,98,0.00,,,0.01,Wunderground v.1.15,2013-04-30 10:47:00,
2013-04-30 06:50:00,45.1,44.6,30.07,SSW,205,0.0,0.0,98,0.00,,,0.01,Wunderground v.1.15,2013-04-30 10:50:00,
2013-04-30 06:52:00,45.1,44.6,30.07,N/A,-737280,0.0,-999.0,98,0.00,,,0.01,Wunderground v.1.15,2013-04-30 10:52:00,
2013-04-30 06:57:00,45.1,44.6,30.07,N/A,-737280,0.0,-999.0,98,0.00,,,0.01,Wunderground v.1.15,2013-04-30 10:57:00,
2013-04-30 07:00:00,45.0,44.5,30.08,SSW,204,0.0,0.0,98,0.00,,,0.01,Wunderground v.1.15,2013-04-30 11:00:00,
2013-04-30 07:02:00,45.1,44.6,30.08,N/A,-737280,0.0,-999.0,98,0.00,,,0.01,Wunderground v.1.15,2013-04-30 11:02:00,
2013-04-30 07:07:00,45.0,44.5,30.08,N/A,-737280,0.0,-999.0,98,0.00,,,0.01,Wunderground v.1.15,2013-04-30 11:07:00,
2013-04-30 07:10:00,45.1,44.6,30.08,SSW,205,0.0,0.0,98,0.00,,,0.01,Wunderground v.1.15,2013-04-30 11:10:00,
2013-04-30 07:12:00,45.1,44.6,30.08,N/A,-737280,0.0,-999.0,98,0.00,,,0.01,Wunderground v.1.15,2013-04-30 11:12:00,
2013-04-30 07:17:00,45.2,44.7,30.08,N/A,-737280,0.0,-999.0,98,0.00,,,0.01,Wunderground v.1.15,2013-04-30 11:17:00,
2013-04-30 07:20:00,45.5,45.0,30.08,SSW,205,0.0,0.0,98,0.00,,,0.01,Wunderground v.1.15,2013-04-30 11:20:00,
2013-04-30 07:22:00,45.4,44.9,30.08,N/A,-737280,0.0,-999.0,98,0.00,,,0.01,Wunderground v.1.15,2013-04-30 11:22:00,
2013-04-30 07:25:00,45.9,45.4,30.08,SSW,204,0.0,0.0,98,0.00,,,0.01,Wunderground v.1.15,2013-04-30 11:25:00,
2013-04-30 07:27:00,45.7,45.2,30.08,N/A,-737280,0.0,-999.0,98,0.00,,,0.01,Wunderground v.1.15,2013-04-30 11:27:00,
2013-04-30 07:30:00,46.2,45.7,30.09,SSW,204,0.0,0.0,98,0.00,,,0.01,Wunderground v.1.15,2013-04-30 11:30:00,
2013-04-30 07:32:00,46.0,45.5,30.09,N/A,-737280,0.0,-999.0,98,0.00,,,0.01,Wunderground v.1.15,2013-04-30 11:32:00,
2013-04-30 07:35:00,46.7,46.2,30.09,SSW,205,0.0,0.0,98,0.00,,,0.01,Wunderground v.1.15,2013-04-30 11:35:00,
2013-04-30 07:37:00,46.4,45.9,30.09,N/A,-737280,0.0,-999.0,98,0.00,,,0.01,Wunderground v.1.15,2013-04-30 11:37:00,
2013-04-30 07:40:00,47.1,46.6,30.09,SSW,205,0.0,0.0,98,0.00,,,0.01,Wunderground v.1.15,2013-04-30 11:40:00,
2013-04-30 07:42:00,46.9,46.4,30.09,N/A,-737280,0.0,-999.0,98,0.00,,,0.01,Wunderground v.1.15,2013-04-30 11:42:00,
2013-04-30 07:45:00,47.4,46.9,30.09,SSW,204,0.0,0.0,98,0.00,,,0.01,Wunderground v.1.15,2013-04-30 11:45:00,
2013-04-30 07:47:00,47.2,46.7,30.09,N/A,-737280,0.0,-999.0,98,0.00,,,0.01,Wunderground v.1.15,2013-04-30 11:47:00,
2013-04-30 07:50:00,47.8,47.3,30.09,SSW,205,0.0,0.0,98,0.00,,,0.01,Wunderground v.1.15,2013-04-30 11:50:00,
2013-04-30 07:52:00,47.5,47.0,30.09,N/A,-737280,0.0,-999.0,98,0.00,,,0.01,Wunderground v.1.15,2013-04-30 11:52:00,
2013-04-30 07:55:00,48.5,48.0,30.09,SSW,204,0.0,0.0,98,0.00,,,0.01,Wunderground v.1.15,2013-04-30 11:55:00,
2013-04-30 07:57:00,48.1,47.6,30.09,N/A,-737280,0.0,-999.0,98,0.00,,,0.01,Wunderground v.1.15,2013-04-30 11:57:00,
2013-04-30 08:00:00,49.2,48.7,30.09,SSW,205,0.0,0.0,98,0.00,,,0.01,Wunderground v.1.15,2013-04-30 12:00:00,
2013-04-30 08:02:00,48.8,48.3,30.09,N/A,-737280,0.0,-999.0,98,0.00,,,0.01,Wunderground v.1.15,2013-04-30 12:02:00,
2013-04-30 08:07:00,49.4,48.9,30.09,N/A,-737280,0.0,-999.0,98,0.00,,,0.01,Wunderground v.1.15,2013-04-30 12:07:00,
2013-04-30 08:10:00,50.1,49.6,30.09,SSW,204,0.0,0.0,98,0.00,,,0.01,Wunderground v.1.15,2013-04-30 12:10:00,
2013-04-30 08:12:00,50.0,49.5,30.09,N/A,-737280,0.0,-999.0,98,0.00,,,0.01,Wunderground v.1.15,2013-04-30 12:12:00,
2013-04-30 08:15:00,50.3,49.8,30.09,SSW,204,0.0,0.0,98,0.00,,,0.01,Wunderground v.1.15,2013-04-30 12:15:00,
2013-04-30 08:17:00,50.2,49.7,30.09,N/A,-737280,0.0,-999.0,98,0.00,,,0.01,Wunderground v.1.15,2013-04-30 12:17:00,
2013-04-30 08:22:00,50.5,50.0,30.10,N/A,-737280,0.0,-999.0,98,0.00,,,0.01,Wunderground v.1.15,2013-04-30 12:22:00,
2013-04-30 08:27:00,51.1,50.6,30.10,N/A,-737280,0.0,-999.0,98,0.00,,,0.01,Wunderground v.1.15,2013-04-30 12:27:00,
2013-04-30 08:30:00,52.2,51.7,30.10,South,181,0.0,0.0,98,0.00,,,0.01,Wunderground v.1.15,2013-04-30 12:30:00,
2013-04-30 08:32:00,51.8,51.3,30.10,N/A,-737280,0.0,-999.0,98,0.00,,,0.01,Wunderground v.1.15,2013-04-30 12:32:00,
2013-04-30 08:35:00,53.0,52.5,30.10,SSW,193,0.0,0.0,98,0.00,,,0.01,Wunderground v.1.15,2013-04-30 12:35:00,
2013-04-30 08:37:00,52.5,52.0,30.10,N/A,-737280,0.0,-999.0,98,0.00,,,0.01,Wunderground v.1.15,2013-04-30 12:37:00,
2013-04-30 08:40:00,53.2,52.7,30.10,SSW,203,0.0,0.0,98,0.00,,,0.01,Wunderground v.1.15,2013-04-30 12:40:00,
2013-04-30 08:42:00,53.1,52.6,30.10,N/A,-737280,0.0,-999.0,98,0.00,,,0.01,Wunderground v.1.15,2013-04-30 12:42:00,
2013-04-30 08:45:00,53.7,53.1,30.10,SSW,194,0.0,0.0,98,0.00,,,0.01,Wunderground v.1.15,2013-04-30 12:45:00,
2013-04-30 08:47:00,53.4,52.8,30.10,N/A,-737280,0.0,-999.0,98,0.00,,,0.01,Wunderground v.1.15,2013-04-30 12:47:00,
2013-04-30 08:50:00,54.3,53.7,30.10,SSW,197,0.0,0.0,98,0.00,,,0.01,Wunderground v.1.15,2013-04-30 12:50:00,
2013-04-30 08:52:00,54.0,53.4,30.10,N/A,-737280,0.0,-999.0,98,0.00,,,0.01,Wunderground v.1.15,2013-04-30 12:52:00,
2013-04-30 09:00:00,55.3,54.7,30.10,SSE,153,0.0,0.0,98,0.00,,,0.01,Wunderground v.1.15,2013-04-30 13:00:00,
2013-04-30 09:10:00,56.6,56.0,30.11,SSE,148,0.0,0.0,98,0.00,,,0.01,Wunderground v.1.15,2013-04-30 13:10:00,
2013-04-30 09:15:00,57.4,56.8,30.11,SSW,199,0.0,1.0,98,0.00,,,0.01,Wunderground v.1.15,2013-04-30 13:15:00,
2013-04-30 09:20:00,57.9,57.3,30.10,SSE,158,1.0,2.0,98,0.00,,,0.01,Wunderground v.1.15,2013-04-30 13:20:00,
2013-04-30 09:25:00,58.1,57.5,30.11,South,184,3.0,3.0,98,0.00,,,0.01,Wunderground v.1.15,2013-04-30 13:25:00,
2013-04-30 09:30:00,58.6,58.0,30.10,SSE,159,2.0,2.0,98,0.00,,,0.01,Wunderground v.1.15,2013-04-30 13:30:00,
2013-04-30 09:35:00,59.2,58.3,30.10,SSE,156,2.0,2.0,97,0.00,,,0.01,Wunderground v.1.15,2013-04-30 13:35:00,
2013-04-30 09:45:00,60.3,59.2,30.10,SW,232,1.0,2.0,96,0.00,,,0.01,Wunderground v.1.15,2013-04-30 13:45:00,
2013-04-30 09:50:00,60.7,59.3,30.10,SW,222,2.0,4.0,95,0.00,,,0.01,Wunderground v.1.15,2013-04-30 13:50:00,
2013-04-30 09:55:00,61.3,59.6,30.10,SW,222,2.0,4.0,94,0.00,,,0.01,Wunderground v.1.15,2013-04-30 13:55:00,
2013-04-30 10:00:00,62.0,60.0,30.10,ESE,115,2.0,3.0,93,0.00,,,0.01,Wunderground v.1.15,2013-04-30 14:00:00,
2013-04-30 10:10:00,63.3,59.4,30.10,South,190,4.0,9.0,87,0.00,,,0.01,Wunderground v.1.15,2013-04-30 14:10:00,
2013-04-30 10:15:00,63.9,58.6,30.10,SSW,201,4.0,9.0,83,0.00,,,0.01,Wunderground v.1.15,2013-04-30 14:15:00,
2013-04-30 10:25:00,64.6,57.9,30.10,SE,139,4.0,5.0,79,0.00,,,0.01,Wunderground v.1.15,2013-04-30 14:25:00,
2013-04-30 10:30:00,65.0,58.3,30.10,SSE,161,4.0,5.0,79,0.00,,,0.01,Wunderground v.1.15,2013-04-30 14:30:00,
2013-04-30 10:35:00,65.3,59.0,30.10,South,179,4.0,5.0,80,0.00,,,0.01,Wunderground v.1.15,2013-04-30 14:35:00,
2013-04-30 10:40:00,65.7,58.7,30.10,SSW,211,4.0,5.0,78,0.00,,,0.01,Wunderground v.1.15,2013-04-30 14:40:00,
2013-04-30 10:45:00,65.8,58.4,30.10,SSW,200,5.0,8.0,77,0.00,,,0.01,Wunderground v.1.15,2013-04-30 14:45:00,
2013-04-30 10:50:00,65.9,58.1,30.10,SSW,211,6.0,6.0,76,0.00,,,0.01,Wunderground v.1.15,2013-04-30 14:50:00,
2013-04-30 10:55:00,66.2,58.8,30.10,SSW,198,6.0,7.0,77,0.00,,,0.01,Wunderground v.1.15,2013-04-30 14:55:00,
2013-04-30 11:00:00,66.3,58.5,30.10,SSW,208,7.0,9.0,76,0.00,,,0.01,Wunderground v.1.15,2013-04-30 15:00:00,
2013-04-30 11:10:00,66.3,58.1,30.11,SW,217,8.0,9.0,75,0.00,,,0.01,Wunderground v.1.15,2013-04-30 15:10:00,
2013-04-30 11:15:00,66.5,58.3,30.11,SSW,193,8.0,9.0,75,0.00,,,0.01,Wunderground v.1.15,2013-04-30 15:15:00,
2013-04-30 11:20:00,66.7,58.5,30.11,SE,142,7.0,7.0,75,0.00,,,0.01,Wunderground v.1.15,2013-04-30 15:20:00,
2013-04-30 11:25:00,67.1,58.5,30.11,South,191,5.0,7.0,74,0.00,,,0.01,Wunderground v.1.15,2013-04-30 15:25:00,
2013-04-30 11:30:00,67.2,58.6,30.11,SSE,162,6.0,7.0,74,0.00,,,0.01,Wunderground v.1.15,2013-04-30 15:30:00,
2013-04-30 11:35:00,67.5,58.5,30.11,SW,218,7.0,7.0,73,0.00,,,0.01,Wunderground v.1.15,2013-04-30 15:35:00,
2013-04-30 11:40:00,67.8,58.4,30.11,SSE,166,6.0,6.0,72,0.00,,,0.01,Wunderground v.1.15,2013-04-30 15:40:00,
2013-04-30 11:50:00,68.3,59.3,30.11,SW,233,5.0,7.0,73,0.00,,,0.01,Wunderground v.1.15,2013-04-30 15:50:00,
2013-04-30 11:55:00,68.4,58.6,30.11,SSW,210,6.0,7.0,71,0.00,,,0.01,Wunderground v.1.15,2013-04-30 15:55:00,
2013-04-30 12:00:00,68.6,59.2,30.11,SSW,197,7.0,7.0,72,0.00,,,0.01,Wunderground v.1.15,2013-04-30 16:00:00,
2013-04-30 12:10:00,69.2,59.8,30.11,SSW,204,5.0,6.0,72,0.00,,,0.01,Wunderground v.1.15,2013-04-30 16:10:00,
2013-04-30 12:15:00,69.5,58.9,30.11,WSW,245,5.0,6.0,69,0.00,,,0.01,Wunderground v.1.15,2013-04-30 16:15:00,
2013-04-30 12:25:00,70.1,59.0,30.10,SSW,201,4.0,5.0,68,0.00,,,0.01,Wunderground v.1.15,2013-04-30 16:25:00,
2013-04-30 14:30:00,72.7,56.6,30.10,North,6,2.0,12.0,57,0.00,,,0.01,Wunderground v.1.15,2013-04-30 18:30:00,
2013-04-30 14:35:00,72.8,58.6,30.10,SW,236,2.0,12.0,61,0.00,,,0.01,Wunderground v.1.15,2013-04-30 18:35:00,
2013-04-30 14:40:00,73.0,58.3,30.10,ESE,105,2.0,12.0,60,0.00,,,0.01,Wunderground v.1.15,2013-04-30 18:40:00,
2013-04-30 14:45:00,73.6,58.9,30.09,ENE,73,2.0,12.0,60,0.00,,,0.01,Wunderground v.1.15,2013-04-30 18:45:00,
2013-04-30 14:50:00,73.2,57.1,30.09,ESE,106,2.0,12.0,57,0.00,,,0.01,Wunderground v.1.15,2013-04-30 18:50:00,
2013-04-30 14:55:00,73.6,58.9,30.09,NNE,23,2.0,12.0,60,0.00,,,0.01,Wunderground v.1.15,2013-04-30 18:55:00,
2013-04-30 15:00:00,73.7,58.9,30.09,NE,38,2.0,5.0,60,0.00,,,0.01,Wunderground v.1.15,2013-04-30 19:00:00,
2013-04-30 15:10:00,74.8,58.1,30.08,SSW,197,2.0,2.0,56,0.00,,,0.01,Wunderground v.1.15,2013-04-30 19:10:00,
2013-04-30 15:15:00,75.5,60.2,30.09,SW,228,1.0,2.0,59,0.00,,,0.01,Wunderground v.1.15,2013-04-30 19:15:00,
2013-04-30 15:20:00,76.0,58.7,30.09,SE,131,1.0,3.0,55,0.00,,,0.01,Wunderground v.1.15,2013-04-30 19:20:00,
2013-04-30 15:25:00,75.4,57.6,30.09,ESE,118,2.0,3.0,54,0.00,,,0.01,Wunderground v.1.15,2013-04-30 19:25:00,
2013-04-30 15:30:00,75.1,57.3,30.09,NNE,19,2.0,4.0,54,0.00,,,0.01,Wunderground v.1.15,2013-04-30 19:30:00,
2013-04-30 15:40:00,73.9,56.7,30.08,NE,46,3.0,5.0,55,0.00,,,0.01,Wunderground v.1.15,2013-04-30 19:40:00,
2013-04-30 15:45:00,73.6,56.9,30.08,East,87,3.0,5.0,56,0.00,,,0.01,Wunderground v.1.15,2013-04-30 19:45:00,
2013-04-30 15:50:00,74.0,57.8,30.08,ESE,115,2.0,2.0,57,0.00,,,0.01,Wunderground v.1.15,2013-04-30 19:50:00,
2013-04-30 16:00:00,74.8,58.1,30.08,ESE,111,4.0,4.0,56,0.00,,,0.01,Wunderground v.1.15,2013-04-30 20:00:00,
2013-04-30 16:10:00,76.7,57.7,30.07,NE,38,2.0,2.0,52,0.00,,,0.01,Wunderground v.1.15,2013-04-30 20:10:00,
2013-04-30 16:15:00,76.7,59.8,30.07,NE,52,3.0,3.0,56,0.00,,,0.01,Wunderground v.1.15,2013-04-30 20:15:00,
2013-04-30 16:20:00,76.2,56.2,30.07,NNE,29,3.0,5.0,50,0.00,,,0.01,Wunderground v.1.15,2013-04-30 20:20:00,
2013-04-30 16:25:00,75.8,56.4,30.07,ESE,111,3.0,5.0,51,0.00,,,0.01,Wunderground v.1.15,2013-04-30 20:25:00,
2013-04-30 16:35:00,76.3,56.8,30.07,East,99,2.0,3.0,51,0.00,,,0.01,Wunderground v.1.15,2013-04-30 20:35:00,
2013-04-30 16:40:00,76.6,57.1,30.07,ESE,106,3.0,3.0,51,0.00,,,0.01,Wunderground v.1.15,2013-04-30 20:40:00,
2013-04-30 16:50:00,75.9,57.0,30.06,NE,39,3.0,6.0,52,0.00,,,0.01,Wunderground v.1.15,2013-04-30 20:50:00,
2013-04-30 16:55:00,76.3,57.4,30.06,NNW,331,3.0,6.0,52,0.00,,,0.01,Wunderground v.1.15,2013-04-30 20:55:00,
2013-04-30 17:00:00,76.8,57.3,30.06,ENE,67,2.0,4.0,51,0.00,,,0.01,Wunderground v.1.15,2013-04-30 21:00:00,
2013-04-30 17:10:00,76.9,55.7,30.06,ESE,106,3.0,5.0,48,0.00,,,0.01,Wunderground v.1.15,2013-04-30 21:10:00,
2013-04-30 17:15:00,77.1,58.1,30.06,East,88,3.0,5.0,52,0.00,,,0.01,Wunderground v.1.15,2013-04-30 21:15:00,
2013-04-30 17:25:00,78.0,56.7,30.06,ENE,71,2.0,4.0,48,0.00,,,0.01,Wunderground v.1.15,2013-04-30 21:25:00,
2013-04-30 17:30:00,77.5,57.9,30.06,SE,135,2.0,2.0,51,0.00,,,0.01,Wunderground v.1.15,2013-04-30 21:30:00,
2013-04-30 17:35:00,77.4,56.7,30.06,NNE,15,3.0,3.0,49,0.00,,,0.01,Wunderground v.1.15,2013-04-30 21:35:00,
2013-04-30 17:40:00,77.3,56.6,30.06,ENE,72,3.0,3.0,49,0.00,,,0.01,Wunderground v.1.15,2013-04-30 21:40:00,
2013-04-30 17:45:00,77.1,55.9,30.06,SE,124,3.0,3.0,48,0.00,,,0.01,Wunderground v.1.15,2013-04-30 21:45:00,
2013-04-30 17:55:00,77.0,56.4,30.06,NE,49,2.0,3.0,49,0.00,,,0.01,Wunderground v.1.15,2013-04-30 21:55:00,
2013-04-30 18:00:00,76.9,56.8,30.06,NNE,25,3.0,3.0,50,0.00,,,0.01,Wunderground v.1.15,2013-04-30 22:00:00,
2013-04-30 18:10:00,77.1,56.5,30.06,ESE,121,3.0,3.0,49,0.00,,,0.01,Wunderground v.1.15,2013-04-30 22:10:00,
2013-04-30 18:15:00,77.1,56.5,30.06,NNE,23,3.0,3.0,49,0.00,,,0.01,Wunderground v.1.15,2013-04-30 22:15:00,
2013-04-30 18:20:00,76.5,55.9,30.06,NNE,32,3.0,4.0,49,0.00,,,0.01,Wunderground v.1.15,2013-04-30 22:20:00,
2013-04-30 18:25:00,76.3,55.2,30.06,NE,44,4.0,4.0,48,0.00,,,0.01,Wunderground v.1.15,2013-04-30 22:25:00,
2013-04-30 18:30:00,76.2,56.7,30.06,NE,44,3.0,3.0,51,0.00,,,0.01,Wunderground v.1.15,2013-04-30 22:30:00,
2013-04-30 18:35:00,76.5,56.5,30.06,NE,36,3.0,3.0,50,0.00,,,0.01,Wunderground v.1.15,2013-04-30 22:35:00,
2013-04-30 18:40:00,76.5,55.3,30.06,ESE,109,2.0,2.0,48,0.00,,,0.01,Wunderground v.1.15,2013-04-30 22:40:00,
2013-04-30 18:50:00,77.0,56.9,30.06,NNE,20,2.0,2.0,50,0.00,,,0.01,Wunderground v.1.15,2013-04-30 22:50:00,
2013-04-30 18:55:00,76.5,55.9,30.07,ENE,78,3.0,3.0,49,0.00,,,0.01,Wunderground v.1.15,2013-04-30 22:55:00,
2013-04-30 19:00:00,76.0,56.0,30.06,East,95,3.0,3.0,50,0.00,,,0.01,Wunderground v.1.15,2013-04-30 23:00:00,
2013-04-30 19:10:00,76.5,56.5,30.06,East,100,2.0,2.0,50,0.00,,,0.01,Wunderground v.1.15,2013-04-30 23:10:00,
2013-04-30 19:15:00,76.5,57.0,30.06,ENE,70,2.0,2.0,51,0.00,,,0.01,Wunderground v.1.15,2013-04-30 23:15:00,
2013-04-30 19:25:00,76.0,56.6,30.06,NNE,27,2.0,5.0,51,0.00,,,0.01,Wunderground v.1.15,2013-04-30 23:25:00,
2013-04-30 19:30:00,75.5,55.6,30.07,SE,146,2.0,2.0,50,0.00,,,0.01,Wunderground v.1.15,2013-04-30 23:30:00,
2013-04-30 19:35:00,75.0,55.6,30.07,SE,139,2.0,2.0,51,0.00,,,0.01,Wunderground v.1.15,2013-04-30 23:35:00,
2013-04-30 19:40:00,74.3,56.1,30.07,SSW,197,1.0,1.0,53,0.00,,,0.01,Wunderground v.1.15,2013-04-30 23:40:00,
2013-04-30 19:45:00,73.3,55.1,30.07,West,277,1.0,1.0,53,0.00,,,0.01,Wunderground v.1.15,2013-04-30 23:45:00,
2013-04-30 19:50:00,72.6,55.5,30.07,SW,217,0.0,0.0,55,0.00,,,0.01,Wunderground v.1.15,2013-04-30 23:50:00,
2013-04-30 20:00:00,71.3,55.8,30.08,SW,221,0.0,0.0,58,0.00,,,0.01,Wunderground v.1.15,2013-05-01 00:00:00,
2013-04-30 20:10:00,69.8,55.3,30.08,SE,139,0.0,1.0,60,0.00,,,0.01,Wunderground v.1.15,2013-05-01 00:10:00,
2013-04-30 20:20:00,68.5,55.8,30.08,SE,133,0.0,1.0,64,0.00,,,0.01,Wunderground v.1.15,2013-05-01 00:20:00,
2013-04-30 20:25:00,67.3,56.0,30.09,SE,132,1.0,1.0,67,0.00,,,0.01,Wunderground v.1.15,2013-05-01 00:25:00,
2013-04-30 20:30:00,66.3,55.8,30.09,NNE,18,1.0,1.0,69,0.00,,,0.01,Wunderground v.1.15,2013-05-01 00:30:00,
2013-04-30 20:40:00,65.2,55.2,30.09,NNE,18,0.0,0.0,70,0.00,,,0.01,Wunderground v.1.15,2013-05-01 00:40:00,
2013-04-30 20:45:00,64.7,54.7,30.09,East,94,0.0,0.0,70,0.00,,,0.01,Wunderground v.1.15,2013-05-01 00:45:00,
2013-04-30 20:50:00,64.1,54.9,30.09,NNE,12,0.0,0.0,72,0.00,,,0.01,Wunderground v.1.15,2013-05-01 00:50:00,
2013-04-30 20:55:00,63.8,55.0,30.10,NNE,13,1.0,2.0,73,0.00,,,0.01,Wunderground v.1.15,2013-05-01 00:55:00,
2013-04-30 21:00:00,63.8,54.6,30.10,NNE,13,1.0,1.0,72,0.00,,,0.01,Wunderground v.1.15,2013-05-01 01:00:00,
2013-04-30 21:10:00,63.7,54.5,30.10,NNE,13,1.0,1.0,72,0.00,,,0.01,Wunderground v.1.15,2013-05-01 01:10:00,
2013-04-30 21:15:00,63.6,54.8,30.10,North,1,1.0,1.0,73,0.00,,,0.01,Wunderground v.1.15,2013-05-01 01:15:00,
2013-04-30 21:20:00,63.1,54.7,30.10,North,10,1.0,1.0,74,0.00,,,0.01,Wunderground v.1.15,2013-05-01 01:20:00,
2013-04-30 21:25:00,62.7,54.3,30.11,NNE,12,1.0,1.0,74,0.00,,,0.01,Wunderground v.1.15,2013-05-01 01:25:00,
2013-04-30 21:30:00,62.2,54.2,30.11,NNE,12,1.0,1.0,75,0.00,,,0.01,Wunderground v.1.15,2013-05-01 01:30:00,
2013-04-30 21:35:00,62.1,54.4,30.11,NNE,13,1.0,2.0,76,0.00,,,0.01,Wunderground v.1.15,2013-05-01 01:35:00,
2013-04-30 21:45:00,62.8,54.4,30.11,NNE,27,1.0,2.0,74,0.00,,,0.01,Wunderground v.1.15,2013-05-01 01:45:00,
2013-04-30 21:50:00,62.8,54.4,30.11,NNE,15,1.0,1.0,74,0.00,,,0.01,Wunderground v.1.15,2013-05-01 01:50:00,
2013-04-30 21:55:00,63.1,54.7,30.12,NNE,25,1.0,1.0,74,0.00,,,0.01,Wunderground v.1.15,2013-05-01 01:55:00,
2013-04-30 22:00:00,63.3,54.5,30.12,SE,141,0.0,1.0,73,0.00,,,0.01,Wunderground v.1.15,2013-05-01 02:00:00,
2013-04-30 22:10:00,62.6,54.2,30.12,ENE,66,1.0,2.0,74,0.00,,,0.01,Wunderground v.1.15,2013-05-01 02:10:00,
2013-04-30 22:20:00,63.0,54.6,30.12,ESE,102,1.0,1.0,74,0.00,,,0.01,Wunderground v.1.15,2013-05-01 02:20:00,
2013-04-30 22:25:00,63.9,54.7,30.13,NNW,338,1.0,1.0,72,0.00,,,0.01,Wunderground v.1.15,2013-05-01 02:25:00,
2013-04-30 22:30:00,64.1,54.9,30.13,SE,137,1.0,1.0,72,0.00,,,0.01,Wunderground v.1.15,2013-05-01 02:30:00,
2013-04-30 22:35:00,64.2,55.0,30.13,North,357,0.0,2.0,72,0.00,,,0.01,Wunderground v.1.15,2013-05-01 02:35:00,
2013-04-30 22:40:00,64.4,54.8,30.13,NNE,22,1.0,1.0,71,0.00,,,0.01,Wunderground v.1.15,2013-05-01 02:40:00,
2013-04-30 22:45:00,64.3,55.1,30.13,NNW,329,0.0,1.0,72,0.00,,,0.01,Wunderground v.1.15,2013-05-01 02:45:00,
2013-04-30 22:50:00,64.3,54.7,30.13,North,5,1.0,2.0,71,0.00,,,0.01,Wunderground v.1.15,2013-05-01 02:50:00,
2013-04-30 23:00:00,64.1,54.5,30.13,ENE,61,1.0,1.0,71,0.00,,,0.01,Wunderground v.1.15,2013-05-01 03:00:00,
2013-04-30 23:10:00,63.6,54.8,30.13,North,10,0.0,1.0,73,0.00,,,0.01,Wunderground v.1.15,2013-05-01 03:10:00,
2013-04-30 23:15:00,63.3,54.5,30.13,NE,34,1.0,1.0,73,0.00,,,0.01,Wunderground v.1.15,2013-05-01 03:15:00,
2013-04-30 23:20:00,63.0,54.6,30.14,SSE,158,1.0,1.0,74,0.00,,,0.01,Wunderground v.1.15,2013-05-01 03:20:00,
2013-04-30 23:25:00,63.0,54.6,30.14,East,96,1.0,1.0,74,0.00,,,0.01,Wunderground v.1.15,2013-05-01 03:25:00,
2013-04-30 23:35:00,62.6,54.2,30.14,West,267,1.0,4.0,74,0.00,,,0.01,Wunderground v.1.15,2013-05-01 03:35:00,
2013-04-30 23:40:00,62.6,54.2,30.14,South,186,1.0,1.0,74,0.00,,,0.01,Wunderground v.1.15,2013-05-01 03:40:00,
2013-04-30 23:45:00,62.3,54.3,30.14,South,191,0.0,1.0,75,0.00,,,0.01,Wunderground v.1.15,2013-05-01 03:45:00,
2013-04-30 23:50:00,62.1,54.1,30.14,NNE,18,1.0,3.0,75,0.00,,,0.01,Wunderground v.1.15,2013-05-01 03:50:00,
2013-04-30 23:55:00,61.9,53.9,30.14,NNE,15,1.0,3.0,75,0.00,,,0.01,Wunderground v.1.15,2013-05-01 03:55:00,